Montreal, Quebec

9:54 PM EST on January 21, 2018 (GMT -0500)
Montreal-Pierre Elliott Trudeau Int'l Airport

Weather History for CYUL - April, 2014

Change the Weather History Date:

Tuesday, April 1, 2014

  Actual Average Record
Temperature  
Mean Temperature 32 °F -  
Max Temperature 39 °F 51 °F 61 °F (2016)
Min Temperature 25 °F 33 °F 15 °F (2003)
Degree Days  
Heating Degree Days 33    
Moisture  
Dew Point 21 °F    
Average Humidity 59    
Maximum Humidity 86    
Minimum Humidity 28    
Precipitation  
Precipitation 0.00 in 0.10 in - ()
Sea Level Pressure  
Sea Level Pressure 30.16 in    
Wind  
Wind Speed 8 mph ()    
Max Wind Speed 14 mph    
Max Gust Speed 18 mph    
Visibility 15.0 miles    
Events      
Averages and records for this station are not official NWS values.
T = Trace of Precipitation, MM = Missing Value Source: Averaged Metar Reports

Daily Weather History Graph

Daily Weather History Graph

Search for Another Location

Airport or City:

Trip Planner

Search our weather history database for the weather conditions in past years. The results will help you decide how hot, cold, wet, or windy it might be!

Date:

Astronomy

Apr. 01, 2014 Rise Set
Actual Time 6:35 AM EDT 7:23 PM EDT
Civil Twilight 6:05 AM EDT 7:53 PM EDT
Nautical Twilight 5:29 AM EDT 8:28 PM EDT
Astronomical Twilight 4:52 AM EDT 9:06 PM EDT
Moon 7:30 AM EDT (4/1) 9:50 PM EDT (4/1)
Length of Visible Light 13h 47m
Length of Day
12h 47m
Waxing Crescent, 4% of the Moon is Illuminated
Apr 1
Waxing Crescent
Apr 7
First Quarter
Apr 15
Full
Apr 22
Last Quarter
Apr 29
New

Hourly Weather History & Observations

Time (EDT) Temp. Windchill Dew Point Humidity Pressure Visibility Wind Dir Wind Speed Gust Speed Precip Events Conditions
12:00 AM 33.8 °F 26.4 °F 24.8 °F 70% 30.25 in 15.0 mi ENE 9.2 mph - N/A   Clear
1:00 AM 32.0 °F 26.4 °F 24.8 °F 75% 30.25 in 15.0 mi ENE 5.8 mph - N/A   Clear
2:00 AM 30 °F - 24 °F 71% 30.25 in 15 mi NE 8.1 mph - -  
2:00 AM 30.2 °F 21.9 °F 24.8 °F 80% 30.25 in 15.0 mi NE 9.2 mph - N/A   Clear
3:00 AM 30.2 °F 22.6 °F 24.8 °F 80% 30.24 in 15.0 mi NNE 8.1 mph - N/A   Clear
4:00 AM 28.4 °F 21.2 °F 23.0 °F 80% 30.25 in 15.0 mi North 6.9 mph - N/A   Clear
5:00 AM 26.6 °F 19.1 °F 23.0 °F 86% 30.24 in 15.0 mi North 6.9 mph - N/A   Clear
6:00 AM 26.6 °F 17.5 °F 23.0 °F 86% 30.22 in 15.0 mi NNE 9.2 mph - N/A   Clear
7:00 AM 26.6 °F 18.2 °F 23.0 °F 86% 30.24 in 15.0 mi NNE 8.1 mph - N/A   Partly Cloudy
8:00 AM 29 °F - 23 °F 68% 30.24 in 28 mi NE 6.9 mph - -   Clear
8:00 AM 28.4 °F 21.2 °F 23.0 °F 80% 30.24 in 30.0 mi NE 6.9 mph - N/A   Partly Cloudy
9:00 AM 32.0 °F 24.2 °F 17.6 °F 55% 30.24 in 30.0 mi ENE 9.2 mph - N/A   Partly Cloudy
10:00 AM 33.8 °F 25.3 °F 15.8 °F 48% 30.24 in 30.0 mi ENE 11.5 mph 18.4 mph N/A   Partly Cloudy
11:00 AM 35.6 °F 26.6 °F 15.8 °F 44% 30.23 in 30.0 mi NE 13.8 mph - N/A   Partly Cloudy
12:00 PM 35.6 °F 27.5 °F 17.6 °F 48% 30.20 in 30.0 mi NE 11.5 mph 18.4 mph N/A   Scattered Clouds
1:00 PM 35.6 °F 27.1 °F 17.6 °F 48% 30.18 in 30.0 mi NNE 12.7 mph - N/A   Scattered Clouds
2:00 PM 38 °F - 17 °F 28% 30.15 in 28 mi NE 11.5 mph - -   Clear
2:00 PM 37.4 °F 28.9 °F 15.8 °F 41% 30.15 in 30.0 mi NNE 13.8 mph - N/A   Mostly Cloudy
3:00 PM 39.2 °F 33.0 °F 15.8 °F 39% 30.12 in 30.0 mi ENE 9.2 mph - N/A   Mostly Cloudy
4:00 PM 39.2 °F 32.0 °F 21.2 °F 49% 30.10 in 30.0 mi NE 11.5 mph - N/A   Overcast
5:00 PM 39.2 °F 31.6 °F 17.6 °F 42% 30.07 in 15.0 mi ENE 12.7 mph - N/A   Overcast
6:00 PM 39.2 °F 32.0 °F 17.6 °F 42% 30.05 in 15.0 mi ENE 11.5 mph - N/A   Overcast
7:00 PM 37.4 °F 29.3 °F 19.4 °F 48% 30.04 in 15.0 mi NE 12.7 mph - N/A   Overcast
8:00 PM 37 °F - 21 °F 39% 30.04 in 15 mi NE 10.4 mph - -   Overcast
8:00 PM 37.4 °F 30.3 °F 21.2 °F 52% 30.04 in 15.0 mi NE 10.4 mph - N/A   Overcast
9:00 PM 37.4 °F 33.8 °F 19.4 °F 48% 30.03 in 15.0 mi ENE 4.6 mph - N/A   Overcast
10:00 PM 35.6 °F 29.9 °F 24.8 °F 65% 30.01 in 15.0 mi NE 6.9 mph - N/A   Overcast
11:00 PM 37.4 °F 30.3 °F 24.8 °F 60% 29.98 in 15.0 mi NE 10.4 mph - N/A   Mostly Cloudy